Location: Agendoh
(31.0664°N, 8.9343°W)
Time: 07:27:57
(UTC+00:00)

Cosmos 1939 Rocket - Pass Details

Date: 06 December 2021
Orbit: 531 x 583 km, 97.4° (Epoch: 24 January)

Event Time Altitude Azimuth Distance (km) Brightness Sun altitude
Rises 06:11:15 0° 21° (NNE) 2,701 6.4 -14.5°
Reaches altitude 10° 06:13:31 10° 30° (NNE) 1,799 5.6 -14.1°
Maximum altitude 06:17:07 36° 98° (E) 858 4.5 -13.4°
Drops below altitude 10° 06:20:39 10° 166° (SSE) 1,774 5.9 -12.6°
Sets 06:22:52 0° 175° (S) 2,657 6.7 -12.2°
